Time,TemperatureF,DewpointF,PressureIn,WindDirection,WindDirectionDegrees,WindSpeedMPH,WindSpeedGustMPH,Humidity,HourlyPrecipIn,Conditions,Clouds,dailyrainin,SoftwareType,DateUTC
2013-04-19 00:00:00,71.0,70.0,30.06,SSE,150,8.0,9.0,96,-99.99,,,-99.99,,2013-04-19 04:00:00,
2013-04-19 00:23:00,71.0,70.0,30.06,SSE,150,8.0,9.0,96,-99.99,,,-99.99,,2013-04-19 04:23:00,
2013-04-19 00:32:00,71.0,70.0,30.06,SSE,150,8.0,9.0,96,-99.99,,,-99.99,,2013-04-19 04:32:00,
2013-04-19 00:43:00,71.0,70.0,30.06,SSE,150,8.0,9.0,96,-99.99,,,-99.99,,2013-04-19 04:43:00,
2013-04-19 00:52:00,71.0,70.0,30.06,SSE,150,8.0,9.0,96,-99.99,,,-99.99,,2013-04-19 04:52:00,
2013-04-19 01:00:00,70.0,70.0,30.04,SSE,160,9.0,9.0,98,-99.99,,,-99.99,,2013-04-19 05:00:00,
2013-04-19 01:22:00,70.0,70.0,30.04,SSE,160,9.0,9.0,98,-99.99,,,-99.99,,2013-04-19 05:22:00,
2013-04-19 01:31:00,70.0,70.0,30.04,SSE,160,9.0,9.0,98,-99.99,,,-99.99,,2013-04-19 05:31:00,
2013-04-19 01:42:00,70.0,70.0,30.04,SSE,160,9.0,9.0,98,-99.99,,,-99.99,,2013-04-19 05:42:00,
2013-04-19 01:51:00,70.0,70.0,30.04,SSE,160,9.0,9.0,98,-99.99,,,-99.99,,2013-04-19 05:51:00,
2013-04-19 02:00:00,70.0,70.0,30.02,SSE,160,11.0,13.0,98,-99.99,,,-99.99,,2013-04-19 06:00:00,
2013-04-19 02:21:00,70.0,70.0,30.02,SSE,160,11.0,13.0,98,-99.99,,,-99.99,,2013-04-19 06:21:00,
2013-04-19 02:31:00,70.0,70.0,30.02,SSE,160,11.0,13.0,98,-99.99,,,-99.99,,2013-04-19 06:31:00,
2013-04-19 02:42:00,70.0,70.0,30.02,SSE,160,11.0,13.0,98,-99.99,,,-99.99,,2013-04-19 06:42:00,
2013-04-19 02:52:00,70.0,70.0,30.02,SSE,160,11.0,13.0,98,-99.99,,,-99.99,,2013-04-19 06:52:00,
2013-04-19 03:00:00,70.0,70.0,30.00,South,180,14.0,15.0,98,-99.99,,,-99.99,,2013-04-19 07:00:00,
2013-04-19 03:21:00,70.0,70.0,30.00,South,180,14.0,15.0,98,-99.99,,,-99.99,,2013-04-19 07:21:00,
2013-04-19 03:31:00,70.0,70.0,30.00,South,180,14.0,15.0,98,-99.99,,,-99.99,,2013-04-19 07:31:00,
2013-04-19 03:41:00,70.0,70.0,30.00,South,180,14.0,15.0,98,-99.99,,,-99.99,,2013-04-19 07:41:00,
2013-04-19 03:52:00,70.0,70.0,30.00,South,180,14.0,15.0,98,-99.99,,,-99.99,,2013-04-19 07:52:00,
2013-04-19 04:00:00,70.0,70.0,29.99,South,180,11.0,13.0,99,-99.99,,,-99.99,,2013-04-19 08:00:00,
2013-04-19 04:21:00,70.0,70.0,29.99,South,180,11.0,13.0,99,-99.99,,,-99.99,,2013-04-19 08:21:00,
2013-04-19 04:32:00,70.0,70.0,29.99,South,180,11.0,13.0,99,-99.99,,,-99.99,,2013-04-19 08:32:00,
2013-04-19 04:41:00,70.0,70.0,29.99,South,180,11.0,13.0,99,-99.99,,,-99.99,,2013-04-19 08:41:00,
2013-04-19 04:51:00,70.0,70.0,29.99,South,180,11.0,13.0,99,-99.99,,,-99.99,,2013-04-19 08:51:00,
2013-04-19 05:00:00,70.0,70.0,29.98,South,180,13.0,14.0,98,-99.99,,,-99.99,,2013-04-19 09:00:00,
2013-04-19 05:21:00,70.0,70.0,29.98,South,180,13.0,14.0,98,-99.99,,,-99.99,,2013-04-19 09:21:00,
2013-04-19 05:32:00,70.0,70.0,29.98,South,180,13.0,14.0,98,-99.99,,,-99.99,,2013-04-19 09:32:00,
2013-04-19 05:42:00,70.0,70.0,29.98,South,180,13.0,14.0,98,-99.99,,,-99.99,,2013-04-19 09:42:00,
2013-04-19 05:52:00,70.0,70.0,29.98,South,180,13.0,14.0,98,-99.99,,,-99.99,,2013-04-19 09:52:00,
2013-04-19 06:00:00,70.0,70.0,29.98,South,180,11.0,13.0,99,-99.99,,,-99.99,,2013-04-19 10:00:00,
2013-04-19 06:22:00,70.0,70.0,29.98,South,180,11.0,13.0,99,-99.99,,,-99.99,,2013-04-19 10:22:00,
2013-04-19 06:33:00,70.0,70.0,29.98,South,180,11.0,13.0,99,-99.99,,,-99.99,,2013-04-19 10:33:00,
2013-04-19 06:42:00,70.0,70.0,29.98,South,180,11.0,13.0,99,-99.99,,,-99.99,,2013-04-19 10:42:00,
2013-04-19 06:52:00,70.0,70.0,29.98,South,180,11.0,13.0,99,-99.99,,,-99.99,,2013-04-19 10:52:00,
2013-04-19 07:00:00,70.0,70.0,29.99,South,170,10.0,14.0,100,-99.99,,,-99.99,,2013-04-19 11:00:00,
2013-04-19 07:21:00,70.0,70.0,29.99,South,170,10.0,14.0,100,-99.99,,,-99.99,,2013-04-19 11:21:00,
2013-04-19 07:32:00,70.0,70.0,29.99,South,170,10.0,14.0,100,-99.99,,,-99.99,,2013-04-19 11:32:00,
2013-04-19 07:42:00,70.0,70.0,29.99,South,170,10.0,14.0,100,-99.99,,,-99.99,,2013-04-19 11:42:00,
2013-04-19 07:52:00,70.0,70.0,29.99,South,170,10.0,14.0,100,-99.99,,,-99.99,,2013-04-19 11:52:00,
2013-04-19 08:00:00,70.0,70.0,30.01,South,170,13.0,14.0,100,-99.99,,,-99.99,,2013-04-19 12:00:00,
2013-04-19 08:22:00,70.0,70.0,30.01,South,170,13.0,14.0,100,-99.99,,,-99.99,,2013-04-19 12:22:00,
2013-04-19 08:32:00,70.0,70.0,30.01,South,170,13.0,14.0,100,-99.99,,,-99.99,,2013-04-19 12:32:00,
2013-04-19 08:42:00,70.0,70.0,30.01,South,170,13.0,14.0,100,-99.99,,,-99.99,,2013-04-19 12:42:00,
2013-04-19 08:52:00,70.0,70.0,30.01,South,170,13.0,14.0,100,-99.99,,,-99.99,,2013-04-19 12:52:00,
2013-04-19 09:00:00,71.0,71.0,30.01,South,170,14.0,17.0,100,-99.99,,,-99.99,,2013-04-19 13:00:00,
2013-04-19 09:21:00,71.0,71.0,30.01,South,170,14.0,17.0,100,-99.99,,,-99.99,,2013-04-19 13:21:00,
2013-04-19 09:32:00,71.0,71.0,30.01,South,170,14.0,17.0,100,-99.99,,,-99.99,,2013-04-19 13:32:00,
2013-04-19 09:41:00,71.0,71.0,30.01,South,170,14.0,17.0,100,-99.99,,,-99.99,,2013-04-19 13:41:00,
2013-04-19 09:52:00,71.0,71.0,30.01,South,170,14.0,17.0,100,-99.99,,,-99.99,,2013-04-19 13:52:00,
2013-04-19 10:00:00,71.0,71.0,30.01,South,190,15.0,17.0,98,-99.99,,,-99.99,,2013-04-19 14:00:00,
2013-04-19 10:21:00,71.0,71.0,30.01,South,190,15.0,17.0,98,-99.99,,,-99.99,,2013-04-19 14:21:00,
2013-04-19 10:31:00,71.0,71.0,30.01,South,190,15.0,17.0,98,-99.99,,,-99.99,,2013-04-19 14:31:00,
2013-04-19 10:42:00,71.0,71.0,30.01,South,190,15.0,17.0,98,-99.99,,,-99.99,,2013-04-19 14:42:00,
2013-04-19 10:52:00,71.0,71.0,30.01,South,190,15.0,17.0,98,-99.99,,,-99.99,,2013-04-19 14:52:00,
2013-04-19 11:00:00,71.0,71.0,30.01,SSW,210,18.0,21.0,98,-99.99,,,-99.99,,2013-04-19 15:00:00,
2013-04-19 11:21:00,71.0,71.0,30.01,SSW,210,18.0,21.0,98,-99.99,,,-99.99,,2013-04-19 15:21:00,
2013-04-19 11:33:00,71.0,71.0,30.01,SSW,210,18.0,21.0,98,-99.99,,,-99.99,,2013-04-19 15:33:00,
2013-04-19 11:42:00,71.0,71.0,30.01,SSW,210,18.0,21.0,98,-99.99,,,-99.99,,2013-04-19 15:42:00,
2013-04-19 11:52:00,71.0,71.0,30.01,SSW,210,18.0,21.0,98,-99.99,,,-99.99,,2013-04-19 15:52:00,
2013-04-19 12:00:00,71.0,70.0,30.00,South,190,13.0,15.0,95,-99.99,,,-99.99,,2013-04-19 16:00:00,
2013-04-19 12:22:00,71.0,70.0,30.00,South,190,13.0,15.0,95,-99.99,,,-99.99,,2013-04-19 16:22:00,
2013-04-19 12:32:00,71.0,70.0,30.00,South,190,13.0,15.0,95,-99.99,,,-99.99,,2013-04-19 16:32:00,
2013-04-19 12:42:00,71.0,70.0,30.00,South,190,13.0,15.0,95,-99.99,,,-99.99,,2013-04-19 16:42:00,
2013-04-19 12:52:00,71.0,70.0,30.00,South,190,13.0,15.0,95,-99.99,,,-99.99,,2013-04-19 16:52:00,
2013-04-19 13:00:00,69.0,69.0,30.00,SSW,210,14.0,16.0,97,-99.99,,,-99.99,,2013-04-19 17:00:00,
2013-04-19 13:21:00,69.0,69.0,30.00,SSW,210,14.0,16.0,97,-99.99,,,-99.99,,2013-04-19 17:21:00,
2013-04-19 13:32:00,69.0,69.0,30.00,SSW,210,14.0,16.0,97,-99.99,,,-99.99,,2013-04-19 17:32:00,
2013-04-19 13:42:00,69.0,69.0,30.00,SSW,210,14.0,16.0,97,-99.99,,,-99.99,,2013-04-19 17:42:00,
2013-04-19 13:52:00,69.0,69.0,30.00,SSW,210,14.0,16.0,97,-99.99,,,-99.99,,2013-04-19 17:52:00,
2013-04-19 14:00:00,71.0,70.0,29.96,South,180,17.0,18.0,95,-99.99,,,-99.99,,2013-04-19 18:00:00,
2013-04-19 14:22:00,71.0,70.0,29.96,South,180,17.0,18.0,95,-99.99,,,-99.99,,2013-04-19 18:22:00,
2013-04-19 14:32:00,71.0,70.0,29.96,South,180,17.0,18.0,95,-99.99,,,-99.99,,2013-04-19 18:32:00,
2013-04-19 14:42:00,71.0,70.0,29.96,South,180,17.0,18.0,95,-99.99,,,-99.99,,2013-04-19 18:42:00,
2013-04-19 14:52:00,71.0,70.0,29.96,South,180,17.0,18.0,95,-99.99,,,-99.99,,2013-04-19 18:52:00,
2013-04-19 15:00:00,72.0,71.0,29.94,South,190,17.0,20.0,95,-99.99,,,-99.99,,2013-04-19 19:00:00,
2013-04-19 15:21:00,72.0,71.0,29.94,South,190,17.0,20.0,95,-99.99,,,-99.99,,2013-04-19 19:21:00,
2013-04-19 15:31:00,72.0,71.0,29.94,South,190,17.0,20.0,95,-99.99,,,-99.99,,2013-04-19 19:31:00,
2013-04-19 15:41:00,72.0,71.0,29.94,South,190,17.0,20.0,95,-99.99,,,-99.99,,2013-04-19 19:41:00,
2013-04-19 15:52:00,72.0,71.0,29.94,South,190,17.0,20.0,95,-99.99,,,-99.99,,2013-04-19 19:52:00,
2013-04-19 16:00:00,71.0,70.0,29.92,South,180,20.0,22.0,97,-99.99,,,-99.99,,2013-04-19 20:00:00,
2013-04-19 16:21:00,71.0,70.0,29.92,South,180,20.0,22.0,97,-99.99,,,-99.99,,2013-04-19 20:21:00,
2013-04-19 16:31:00,71.0,70.0,29.92,South,180,20.0,22.0,97,-99.99,,,-99.99,,2013-04-19 20:31:00,
2013-04-19 16:41:00,71.0,70.0,29.92,South,180,20.0,22.0,97,-99.99,,,-99.99,,2013-04-19 20:41:00,
2013-04-19 16:51:00,71.0,70.0,29.92,South,180,20.0,22.0,97,-99.99,,,-99.99,,2013-04-19 20:51:00,
2013-04-19 17:00:00,71.0,71.0,29.91,South,180,22.0,24.0,97,-99.99,,,-99.99,,2013-04-19 21:00:00,
2013-04-19 17:21:00,71.0,71.0,29.91,South,180,22.0,24.0,97,-99.99,,,-99.99,,2013-04-19 21:21:00,
2013-04-19 17:32:00,71.0,71.0,29.91,South,180,22.0,24.0,97,-99.99,,,-99.99,,2013-04-19 21:32:00,
2013-04-19 17:42:00,71.0,71.0,29.91,South,180,22.0,24.0,97,-99.99,,,-99.99,,2013-04-19 21:42:00,
2013-04-19 17:52:00,71.0,71.0,29.91,South,180,22.0,24.0,97,-99.99,,,-99.99,,2013-04-19 21:52:00,
2013-04-19 18:00:00,72.0,70.0,29.89,South,180,23.0,26.0,95,-99.99,,,-99.99,,2013-04-19 22:00:00,
2013-04-19 18:22:00,72.0,70.0,29.89,South,180,23.0,26.0,95,-99.99,,,-99.99,,2013-04-19 22:22:00,
2013-04-19 18:33:00,72.0,70.0,29.89,South,180,23.0,26.0,95,-99.99,,,-99.99,,2013-04-19 22:33:00,
2013-04-19 18:41:00,72.0,70.0,29.89,South,180,23.0,26.0,95,-99.99,,,-99.99,,2013-04-19 22:41:00,
2013-04-19 18:52:00,72.0,70.0,29.89,South,180,23.0,26.0,95,-99.99,,,-99.99,,2013-04-19 22:52:00,
2013-04-19 19:00:00,71.0,70.0,29.91,South,190,16.0,18.0,97,-99.99,,,-99.99,,2013-04-19 23:00:00,
2013-04-19 19:21:00,71.0,70.0,29.91,South,190,16.0,18.0,97,-99.99,,,-99.99,,2013-04-19 23:21:00,
2013-04-19 19:31:00,71.0,70.0,29.91,South,190,16.0,18.0,97,-99.99,,,-99.99,,2013-04-19 23:31:00,
2013-04-19 19:42:00,71.0,70.0,29.91,South,190,16.0,18.0,97,-99.99,,,-99.99,,2013-04-19 23:42:00,
2013-04-19 19:52:00,71.0,70.0,29.91,South,190,16.0,18.0,97,-99.99,,,-99.99,,2013-04-19 23:52:00,
2013-04-19 20:00:00,72.0,71.0,29.92,SW,230,20.0,31.0,96,-99.99,,,-99.99,,2013-04-20 00:00:00,
2013-04-19 20:21:00,72.0,71.0,29.92,SW,230,20.0,31.0,96,-99.99,,,-99.99,,2013-04-20 00:21:00,
2013-04-19 20:31:00,72.0,71.0,29.92,SW,230,20.0,31.0,96,-99.99,,,-99.99,,2013-04-20 00:31:00,
2013-04-19 20:41:00,72.0,71.0,29.92,SW,230,20.0,31.0,96,-99.99,,,-99.99,,2013-04-20 00:41:00,
2013-04-19 20:51:00,72.0,71.0,29.92,SW,230,20.0,31.0,96,-99.99,,,-99.99,,2013-04-20 00:51:00,
2013-04-19 21:00:00,68.0,68.0,29.92,WSW,240,11.0,17.0,100,-99.99,,,-99.99,,2013-04-20 01:00:00,
2013-04-19 21:21:00,68.0,68.0,29.92,WSW,240,11.0,17.0,100,-99.99,,,-99.99,,2013-04-20 01:21:00,
2013-04-19 21:31:00,68.0,68.0,29.92,WSW,240,11.0,17.0,100,-99.99,,,-99.99,,2013-04-20 01:31:00,
2013-04-19 21:41:00,68.0,68.0,29.92,WSW,240,11.0,17.0,100,-99.99,,,-99.99,,2013-04-20 01:41:00,
2013-04-19 21:51:00,68.0,68.0,29.92,WSW,240,11.0,17.0,100,-99.99,,,-99.99,,2013-04-20 01:51:00,
2013-04-19 22:00:00,69.0,69.0,29.94,SW,220,13.0,15.0,100,-99.99,,,-99.99,,2013-04-20 02:00:00,
2013-04-19 22:21:00,69.0,69.0,29.94,SW,220,13.0,15.0,100,-99.99,,,-99.99,,2013-04-20 02:21:00,
2013-04-19 22:31:00,69.0,69.0,29.94,SW,220,13.0,15.0,100,-99.99,,,-99.99,,2013-04-20 02:31:00,
2013-04-19 22:42:00,69.0,69.0,29.94,SW,220,13.0,15.0,100,-99.99,,,-99.99,,2013-04-20 02:42:00,
2013-04-19 22:52:00,69.0,69.0,29.94,SW,220,13.0,15.0,100,-99.99,,,-99.99,,2013-04-20 02:52:00,
2013-04-19 23:00:00,69.0,69.0,29.93,SW,220,14.0,16.0,100,-99.99,,,-99.99,,2013-04-20 03:00:00,
2013-04-19 23:21:00,69.0,69.0,29.93,SW,220,14.0,16.0,100,-99.99,,,-99.99,,2013-04-20 03:21:00,
2013-04-19 23:32:00,69.0,69.0,29.93,SW,220,14.0,16.0,100,-99.99,,,-99.99,,2013-04-20 03:32:00,
2013-04-19 23:43:00,69.0,69.0,29.93,SW,220,14.0,16.0,100,-99.99,,,-99.99,,2013-04-20 03:43:00,
2013-04-19 23:52:00,69.0,69.0,29.93,SW,220,14.0,16.0,100,-99.99,,,-99.99,,2013-04-20 03:52:00,